FW8347 Weather Reports


Display with metric or nautical units.
time (UTC)temp
F
wind
direction
speed
MPH
gust
MPH
rain 1hr
in
rain 24hr
in
rain mn
in
humidity
%
barometer
mb
20260831101557 64 180 3.0 6.0 0.00 0.02 0.00 92 1018.9
20260831100116 64 180 4.0 6.0 0.00 0.02 0.00 92 1018.8
20260831094600 64 180 3.0 5.0 0.00 0.02 0.00 92 1018.9
20260831093058 64 180 3.0 5.0 0.00 0.02 0.00 92 1019.2
20260831091557 63 180 3.0 5.0 0.00 0.02 0.00 93 1018.9
20260831090053 63 180 2.0 5.0 0.00 0.02 0.00 93 1019.0
20260831084626 63 180 3.0 5.0 0.00 0.02 0.00 93 1019.0
20260831083058 63 180 2.0 4.0 0.00 0.02 0.00 92 1019.1
20260831081556 63 180 2.0 4.0 0.00 0.02 0.00 92 1019.2
20260831080105 63 180 3.0 5.0 0.00 0.02 0.00 92 1019.1
20260831074600 63 180 3.0 5.0 0.00 0.02 0.00 92 1019.3
20260831073047 63 180 2.0 4.0 0.00 0.02 0.00 92 1019.3
20260831071607 63 180 3.0 5.0 0.00 0.02 0.00 92 1019.3
20260831070051 63 180 3.0 5.0 0.00 0.02 0.00 92 1019.2
20260831064550 63 180 4.0 6.0 0.00 0.02 0.00 92 1019.4
20260831063045 63 180 3.0 5.0 0.00 0.02 0.00 92 1019.2
20260831061558 63 180 3.0 6.0 0.00 0.02 0.00 91 1019.2
20260831060101 63 180 4.0 5.0 0.00 0.02 0.00 91 1019.6
20260831054550 63 180 3.0 6.0 0.00 0.02 0.00 91 1019.5
20260831053056 63 168 4.0 7.0 0.00 0.02 0.00 91 1019.7
20260831051555 63 171 3.0 6.0 0.00 0.02 0.00 91 1019.6
20260831050108 63 190 3.0 6.0 0.00 0.02 0.00 91 1019.7
20260831044549 63 189 3.0 6.0 0.00 0.02 0.00 91 1019.9
20260831043053 63 192 4.0 6.0 0.00 0.02 0.00 91 1019.9
20260831041619 63 182 4.0 6.0 0.00 0.02 0.00 91 1019.8
20260831040049 62 0 0.0 0.0 0.00 0.02 0.00 91 1019.7
20260831034547 62 0 0.0 0.0 0.00 0.02 0.02 91 1019.8
20260831033105 62 0 0.0 0.0 0.00 0.02 0.02 90 1019.7
20260831031556 63 0 0.0 0.0 0.00 0.02 0.02 89 1019.7
20260831030052 64 0 0.0 2.0 0.00 0.02 0.02 87 1019.7
20260831024604 64 206 1.0 4.0 0.00 0.02 0.02 88 1019.7
20260831023101 65 209 2.0 6.0 0.00 0.02 0.02 87 1019.8
20260831021555 65 205 3.0 5.0 0.00 0.02 0.02 88 1019.8
20260831020050 65 206 3.0 8.0 0.00 0.02 0.02 88 1019.7
20260831014559 65 215 3.0 7.0 0.00 0.02 0.02 89 1019.8
20260831013059 64 207 4.0 6.0 0.00 0.02 0.02 90 1019.6
20260831011554 64 218 3.0 5.0 0.00 0.02 0.02 90 1019.7
20260831010112 65 253 2.0 3.0 0.00 0.02 0.02 89 1019.8
20260831004549 66 0 0.0 0.0 0.00 0.02 0.02 87 1019.6
20260831003108 67 0 0.0 0.0 0.00 0.02 0.02 85 1019.4
20260831001558 67 253 1.0 4.0 0.00 0.02 0.02 85 1019.1
20260831000053 68 253 2.0 4.0 0.00 0.02 0.02 85 1018.9
20260830234554 68 246 3.0 7.0 0.00 0.02 0.02 85 1018.7
20260830233056 69 235 2.0 7.0 0.00 0.02 0.02 86 1018.5
20260830231600 69 243 4.0 9.0 0.00 0.02 0.02 86 1018.6
20260830230050 69 293 5.0 9.0 0.00 0.02 0.02 87 1018.6
20260830224604 69 255 5.0 10.0 0.00 0.02 0.02 86 1018.7
20260830223058 69 229 3.0 8.0 0.00 0.02 0.02 87 1018.8
20260830221601 69 273 3.0 7.0 0.00 0.02 0.02 87 1018.8
20260830220100 69 254 6.0 9.0 0.00 0.02 0.02 86 1018.6
20260830214554 69 241 5.0 9.0 0.00 0.02 0.02 87 1018.6
20260830213049 69 247 2.0 5.0 0.00 0.02 0.02 88 1018.5
20260830211557 69 254 2.0 7.0 0.00 0.02 0.02 88 1018.6
20260830210119 70 297 1.0 5.0 0.00 0.02 0.02 89 1018.7
20260830204603 70 317 1.0 7.0 0.00 0.02 0.02 89 1018.8
20260830203104 70 331 0.0 5.0 0.00 0.02 0.02 89 1018.9
20260830201558 69 355 1.0 5.0 0.01 0.02 0.02 91 1018.8
20260830200113 69 0 3.0 10.0 0.01 0.02 0.02 92 1018.9
20260830194635 68 281 3.0 8.0 0.01 0.02 0.02 93 1018.8
20260830193052 67 249 4.0 8.0 0.01 0.02 0.02 93 1018.9
20260830191603 66 235 3.0 7.0 0.00 0.01 0.01 92 1019.2
20260830190057 66 236 3.0 7.0 0.00 0.01 0.01 92 1019.2
20260830184555 66 238 5.0 9.0 0.01 0.01 0.01 92 1019.4
20260830183050 66 240 3.0 6.0 0.01 0.01 0.01 92 1019.3
20260830181550 66 234 2.0 7.0 0.01 0.01 0.01 91 1019.6
20260830180107 66 261 3.0 7.0 0.01 0.01 0.01 90 1019.7
20260830174558 67 258 5.0 9.0 0.00 0.00 0.00 89 1019.7
20260830173108 68 360 3.0 8.0 0.00 0.00 0.00 87 1019.7
20260830171603 68 305 5.0 10.0 0.00 0.00 0.00 85 1019.8
20260830170055 69 259 2.0 7.0 0.00 0.00 0.00 84 1019.7
20260830164557 69 260 2.0 4.0 0.00 0.00 0.00 82 1019.5
20260830163058 69 283 1.0 4.0 0.00 0.00 0.00 82 1019.5
20260830161625 69 258 2.0 7.0 0.00 0.00 0.00 83 1019.5
20260830160059 69 253 2.0 5.0 0.00 0.00 0.00 82 1019.6
20260830154554 69 244 2.0 5.0 0.00 0.00 0.00 79 1019.5
20260830153102 70 234 3.0 7.0 0.00 0.00 0.00 78 1019.5
20260830151555 70 237 2.0 8.0 0.00 0.00 0.00 78 1019.5
20260830150108 70 257 4.0 7.0 0.00 0.00 0.00 75 1019.5
20260830144603 70 249 3.0 5.0 0.00 0.00 0.00 75 1019.3
20260830143101 70 236 2.0 4.0 0.00 0.00 0.00 74 1019.4
20260830141553 70 251 2.0 6.0 0.00 0.00 0.00 75 1019.1
20260830140057 70 257 3.0 7.0 0.00 0.00 0.00 73 1019.2
20260830134546 70 234 4.0 7.0 0.00 0.00 0.00 72 1018.9
20260830133059 70 244 4.0 7.0 0.00 0.00 0.00 72 1018.8
20260830131607 69 246 3.0 9.0 0.00 0.00 0.00 72 1018.8
20260830130051 69 228 4.0 7.0 0.00 0.00 0.00 72 1019.0
20260830124559 69 203 5.0 11.0 0.00 0.00 0.00 72 1018.8
20260830123058 69 198 6.0 9.0 0.00 0.00 0.00 72 1018.9
20260830121553 68 217 6.0 9.0 0.00 0.00 0.00 72 1019.1
20260830120052 68 202 4.0 8.0 0.00 0.00 0.00 72 1018.8
20260830114605 68 196 6.0 10.0 0.00 0.00 0.00 71 1018.8
20260830113052 68 241 5.0 10.0 0.00 0.00 0.00 71 1018.9
20260830111553 68 239 4.0 8.0 0.00 0.00 0.00 71 1018.8
20260830110047 68 190 5.0 9.0 0.00 0.00 0.00 70 1018.7
20260830104605 68 218 7.0 10.0 0.00 0.00 0.00 69 1018.9
20260830103053 68 202 7.0 10.0 0.00 0.00 0.00 69 1018.8